User: anonymous
Location: Unspecified
(0.0000°N, 0.0000°E)
Time: 08:12:14
(UTC+00:00)
Language:

USA 161 - Orbit

View from above orbital plane
View from above orbital plane
View from above satellite
View from above satellite

Ground track
Ground track

The orbit data is extracted from the following two-line orbital elements,

1 26934U 01044A   14256.57136706 0.00016000  00000-0  20578-3 0    01
2 26934  96.9959  27.2729 0003500  67.3752 292.6246 15.59065840    04
Epoch (UTC): 13 September 2014 13:42:46
Eccentricity: 0.0003500
inclination: 96.9959°
perigee height: 388 km
apogee height: 393 km
right ascension of ascending node: 27.2729°
argument of perigee: 67.3752°
revolutions per day: 15.59065840
mean anomaly at epoch: 292.6246°
orbit number at epoch: 0

The dashed part of the orbit path shows where the satellite is in the earth's shadow,  

DLR